Погода в Сент-Катаринс

Канада     43˚09′37″N   79˚14′58″W
темп.,
°C
ветер,
м/с
пор.,
м/с
влажн.,
%
обл.,
%
осадки,
мм/ч
давл.,
гПа
погр.,
м
17 января, вс
вс1701:00+1˚зюз11157997 0.0 999935
04:00+2˚з10137786 0.0 999994
07:00+2˚з9127990 0.0 1001926
10:00+2˚з9128578 0.1 1003937
13:00+3˚з9107383 0.1 10031098
16:00+3˚зюз8107499 0.0 1003903
19:00+1˚з679598 0.3 1005458
22:00+1˚з5681100 0.3 1004610
18 января, пн
пн1801:00сз5584100 0.4 1004484
04:00сз4573100 0.1 1005619
07:00−1˚ссз4474100 0.2 1006655
10:00−2˚сз4576100 0.1 1008665
13:00−2˚сз456699 0.1 1009778
16:00сз356056 0.0 1010926
19:00сз566370 0.0 1013659
22:00−1˚зсз457090 0.0 1014648
19 января, вт
вт1901:00−2˚з239095 0.3 1015332
04:00зюз4779100 0.1 1015812
07:00зюз81074100 0.2 10161046
10:00зюз9117297 0.0 10161048
13:00+1˚зюз9127493 0.1 10161241
16:00з111469100 0.1 10161539
19:00−1˚з101269100 0.2 10171401
22:00−2˚з10126793 0.1 10161294
20 января, ср
ср2001:00−2˚зсз11126590 0.2 10161596
04:00−3˚зсз111463100 0.1 10171699
07:00−5˚сз101168100 0.2 10191249
10:00−5˚сз9106198 0.0 10211216
13:00−5˚зсз675496 0.0 10211177
16:00−4˚з5658100 0.0 10191302
19:00−3˚зюз6761100 0.0 10181095
22:00−3˚юз696899 0.0 1015897
21 января, чт
чт2101:00−1˚юз81281100 0.1 10111016
04:00юз101579100 0.1 10061096
07:00+1˚юз111694100 0.6 1002930
10:00+3˚зюз121680100 0.2 10001097
13:00+3˚зюз111575100 0.3 9991400
16:00+2˚зюз101373100 0.1 9991310
19:00+1˚зюз91387100 0.2 1000940
22:00+2˚з101379100 0.3 10001236